Weather in Kirnichki

Ukraine / Odesa District     45°42′24″N   29°03′48″E
temp.,
°C
wind,
m/s
gust,
m/s
humid.,
%
clouds,
%
prec.,
mm/h
press.,
hPa
HPBL,
m
27 july, tue
tue2700:00+23sse11450 0.0 101811
03:00+22wnw114754 0.0 101811
06:00+21n11520 0.0 101811
09:00+26ssw1139100 0.0 1019296
12:00+31sw22295 0.0 10181487
15:00+33wsw32261 0.0 10171956
18:00+33wsw22285 0.0 10171750
21:00+28se3338100 0.0 101739
28 july, wed
wed2800:00+24s484837 0.0 1017168
03:00+23ssw36532 0.0 1017106
06:00+23sw33490 0.0 101632
09:00+28ssw57375 0.0 1016387
12:00+34sw55294 0.0 10151067
15:00+36wsw442730 0.0 10141644
18:00+32ssw8938100 0.0 1013573
21:00+25sw115675 0.1 101430
29 july, thu
thu2900:00+23sw356698 0.1 1016114
03:00+21sw117248 0.1 101311
06:00+21s34705 0.0 101351
09:00+27sw345152 0.0 1012370
12:00+32wsw44383 0.0 1012907
15:00+36wnw34280 0.0 10111701
18:00+36nnw232719 0.0 10091807
21:00+27wsw5837100 0.2 1011111
30 july, fri
fri3000:00+23nw596887 0.4 1011198
03:00+23n337293 0.6 101155
06:00+22n357658 0.0 101298
09:00+27nne34630 0.0 1012546
12:00+32nne44440 0.0 10111453
15:00+34n32340 0.0 10102370
18:00+34ene223425 0.0 10092275
21:00+27se46570 0.0 1009105
31 july, sat
sat3100:00+25s34690 0.0 100968
03:00+24ssw33681 0.0 100949
06:00+23s22691 0.0 100922
09:00+29sse34500 0.0 1009409
12:00+35s44321 0.0 10081572
15:00+37sw43265 0.0 10072445
18:00+36ssw65305 0.0 10061274
21:00+26w116183 0.9 100914